Weather History for Elko, NV

Change the Weather History Date:

Saturday, April 19, 2014

  Actual Average Record
Temperature  
Mean Temperature 54 °F 46 °F  
Max Temperature 73 °F 60 °F 83 °F (1962)
Min Temperature 34 °F 31 °F 14 °F (1895)
Degree Days  
Heating Degree Days 11 19  
Month to date heating degree days 358 401  
Since 1 July heating degree days 5847 6378  
Cooling Degree Days 0 0  
Month to date cooling degree days 0 0  
Year to date cooling degree days 0 0  
Growing Degree Days 3 (Base 50)    
Moisture  
Dew Point 26 °F    
Average Humidity 41    
Maximum Humidity 64    
Minimum Humidity 17    
Precipitation  
Precipitation 0.00 in 0.03 in 0.45 in (2001)
Month to date precipitation 0.30 0.61  
Year to date precipitation 3.93 3.57  
Snow  
Snow 0.00 in 0.10 in 4.30 in (1963)
Month to date snowfall 2.6 2.5  
Since 1 July snowfall 20.2 40.1  
Snow Depth 0.00 in    
Sea Level Pressure  
Sea Level Pressure 29.94 in    
Wind  
Wind Speed 6 mph (WSW)    
Max Wind Speed 23 mph    
Max Gust Speed 30 mph    
Visibility 10 miles    
Events      
T = Trace of Precipitation, MM = Missing Value Source: NWS Daily Summary

Daily Weather History Graph

Daily Weather History Graph

Search for Another Location

Airport:

Trip Planner

Search our weather history database for the weather conditions in past years. The results will help you decide how hot, cold, wet, or windy it might be!

Date:

Astronomy

Apr. 19, 2014 Rise Set
Actual Time 5:58 AM PDT 7:27 PM PDT
Civil Twilight 5:29 AM PDT 7:55 PM PDT
Nautical Twilight 4:54 AM PDT 8:30 PM PDT
Astronomical Twilight 4:18 AM PDT 9:07 PM PDT
Moon No Moon Rise 9:20 AM PDT (4/19)
Length of Visible Light 14h 26m
Length of Day
13h 28m
Waning Gibbous, 77% of the Moon is Illuminated
Apr 19
Waning Gibbous
Apr 22
Last Quarter
Apr 28
New
May 6
First Quarter
May 14
Full

Hourly Weather History & Observations

Time (PDT) Temp. Windchill Dew Point Humidity Pressure Visibility Wind Dir Wind Speed Gust Speed Precip Events Conditions
12:56 AM 37.9 °F 35.5 °F 26.1 °F 62% 29.94 in 10.0 mi SSE 3.5 mph - N/A   Clear
1:56 AM 37.9 °F - 25.0 °F 60% 29.93 in 10.0 mi Calm Calm - N/A   Clear
2:56 AM 36.0 °F - 24.1 °F 62% 29.94 in 10.0 mi Calm Calm - N/A   Clear
3:56 AM 37.9 °F 34.4 °F 25.0 °F 60% 29.95 in 10.0 mi East 4.6 mph - N/A   Clear
4:56 AM 37.0 °F 33.3 °F 25.0 °F 62% 29.96 in 10.0 mi NE 4.6 mph - N/A   Clear
5:56 AM 35.1 °F - 25.0 °F 67% 29.98 in 10.0 mi Calm Calm - N/A   Clear
6:56 AM 37.9 °F 35.5 °F 26.1 °F 62% 29.99 in 10.0 mi NE 3.5 mph - N/A   Clear
7:56 AM 43.0 °F 40.3 °F 26.1 °F 51% 30.00 in 10.0 mi East 4.6 mph - N/A   Clear
8:56 AM 50.0 °F - 26.1 °F 39% 29.99 in 10.0 mi Calm Calm - N/A   Clear
10:56 AM 62.1 °F - 32.0 °F 32% 29.96 in 10.0 mi North 3.5 mph - N/A   Partly Cloudy
11:56 AM 64.0 °F - 30.9 °F 29% 29.94 in 10.0 mi South 5.8 mph - N/A   Mostly Cloudy
12:56 PM 68.0 °F - 26.1 °F 21% 29.93 in 10.0 mi North - - N/A   Clear
1:46 PM 70.0 °F - 27.0 °F 20% 29.98 in 10.0 mi West 17.3 mph 24.2 mph N/A   Clear
1:56 PM 71.1 °F - 26.1 °F 19% 29.90 in 10.0 mi West 17.3 mph 28.8 mph N/A   Clear
2:56 PM 70.0 °F - 27.0 °F 20% 29.89 in 10.0 mi WSW 11.5 mph 20.7 mph N/A   Clear
3:56 PM 71.1 °F - 25.0 °F 18% 29.87 in 10.0 mi West 12.7 mph 25.3 mph N/A   Clear
4:56 PM 71.1 °F - 24.1 °F 17% 29.87 in 10.0 mi WSW 11.5 mph 21.9 mph N/A   Clear
5:56 PM 70.0 °F - 23.0 °F 17% 29.88 in 10.0 mi West 15.0 mph - N/A   Clear
6:56 PM 66.0 °F - 26.1 °F 22% 29.89 in 10.0 mi West 5.8 mph - N/A   Clear
7:56 PM 57.9 °F - 28.0 °F 32% 29.92 in 10.0 mi SSW 4.6 mph - N/A   Clear
8:56 PM 55.0 °F - 26.1 °F 33% 29.94 in 10.0 mi South 3.5 mph - N/A   Clear
9:56 PM 46.0 °F 43.9 °F 28.0 °F 50% 29.96 in 10.0 mi SSW 4.6 mph - N/A   Clear
10:56 PM 44.1 °F 41.5 °F 26.1 °F 49% 29.98 in 10.0 mi SW 4.6 mph - N/A   Clear
11:56 PM 50.0 °F - 23.0 °F 35% 29.99 in 10.0 mi West 8.1 mph - N/A   Clear